CAPE
293 415 510 438 594 502 490 491 448 448 393 711 559 593 796 696 556 365 401 526 492 649 728 567 618 564 500 831 524 447 678 247 180 190 37 377 355 453 637 645 767 374 112
364 399 538 485 439 669 641 469 509 541 318 184 501 528 513 595 532 389 345 877 442 456 378 717 575 662 449 358 442 411 385 363 234 234 122 671 775 579 781 712 591 710 536
691 659 570 497 418 599 524 469 420 425 567 234 198 322 478 465 678 758 636 555 685 509 748 891 885 522 447 489 462 263 84 402 62 0 91 214 591 558 784 889 413 339 444
257 523 726 702 573 490 573 511 471 552 560 571 466 564 571 589 572 653 794 550 517 630 703 817 904 489 462 349 383 210 21 183 50 22 76 221 217 463 288 594 390 178 331
20 39 17 76 275 427 568 545 534 462 606 591 571 524 462 456 323 318 362 514 469 316 497 175 110 137 269 427 385 423 130 182 201 213 153 118 209 330 537 487 316 154 126
0 0 0 50 106 152 332 418 405 447 398 329 502 383 269 102 1 0 31 167 246 271 250 4 0 0 81 25 0 9 2 107 170 110 110 107 78 196 309 193 111 183 143
10 3 1 39 23 22 83 148 254 310 287 333 250 136 0 0 0 0 0 56 174 144 173 49 0 0 0 55 0 0 0 0 0 27 83 42 90 122 0 0 44 107 103
0 1 0 0 0 19 73 100 155 164 71 2 1 0 0 0 3 1 0 177 164 27 49 0 0 0 0 27 0 0 0 0 0 0 0 0 0 0 0 0 15 38 11
1 1 0 0 3 6 20 66 90 65 1 1 3 1 0 0 0 2 1 1 1 1 0 0 0 0 0 0 0 0 0 0 0 0 0 0 0 0 0 0 0 0 0
2 1 1 1 1 2 1 1 1 1 2 2 3 6 4 0 0 1 2 3 0 0 0 0 0 0 0 0 0 0 0 0 0 0 0 0 0 0 0 0 0 0 0
0 0 0 1 1 2 2 2 4 2 2 1 2 1 1 3 1 0 0 0 0 0 0 0 0 0 0 0 0 0 0 0 0 0 0 0 0 0 0 0 0 0 0
0 0 0 0 0 2 1 2 0 0 0 0 1 2 3 0 0 0 0 0 0 0 0 0 0 0 0 0 0 0 0 0 0 0 0 0 0 0 0 0 0 0 0
0 0 0 0 0 0 0 2 2 1 1 2 1 0 0 0 0 0 0 0 0 0 0 0 0 0 0 0 0 0 0 0 0 0 0 0 0 0 0 0 0 0 0
0 0 0 0 0 0 0 0 0 0 0 0 0 0 0 0 0 0 0 0 0 0 0 0 0 0 0 0 0 0 0 0 0 0 0 0 0 0 0 0 0 0 0
0 0 0 0 0 0 0 0 0 0 0 0 0 0 0 0 0 0 0 0 0 0 0 0 0 0 0 0 0 0 0 0 0 0 0 0 0 0 0 0 0 0 0
0 0 0 0 0 0 0 0 0 0 0 0 0 0 0 0 0 0 0 0 0 0 0 0 0 0 0 0 0 0 0 0 0 0 0 0 0 0 0 0 0 0 0
0 0 0 0 0 0 0 0 0 0 0 0 0 0 0 0 0 0 0 0 0 0 0 0 0 0 0 0 0 0 0 0 0 0 0 0 0 0 0 0 0 0 0
0 0 0 0 0 0 0 0 0 0 0 0 0 0 0 0 0 0 0 0 0 0 0 0 0 0 0 0 0 0 0 0 0 0 0 0 0 0 0 0 0 0 0
0 0 0 0 0 0 0 0 0 0 0 0 0 0 0 0 0 0 0 0 0 0 0 0 0 0 0 0 0 0 0 0 0 0 0 0 0 0 0 0 0 0 0
0 0 0 0 0 0 0 0 0 0 0 0 0 0 0 0 0 0 0 0 0 0 0 0 0 0 0 0 0 0 0 0 0 0 0 0 0 0 0 0 0 0 0
0 0 0 0 0 0 0 0 0 0 0 0 0 0 0 0 0 0 0 0 0 0 0 0 0 0 0 0 0 0 0 0 0 0 0 0 0 0 0 0 0 0 0
0 0 0 0 0 0 0 0 0 0 0 0 0 0 0 0 0 0 0 0 0 0 0 0 0 0 0 0 0 0 0 0 0 0 0 0 0 0 0 0 0 0 0
0 0 0 0 0 0 0 0 0 0 0 0 0 0 0 0 0 0 0 0 0 0 0 0 0 0 0 0 0 0 0 0 0 0 0 0 0 0 0 0 0 0 0
0 0 0 0 0 0 0 0 0 0 0 0 0 0 0 0 0 0 0 0 0 0 0 0 0 0 0 0 0 0 0 0 0 0 0 0 0 0 0 0 0 0 0
0 0 0 0 0 0 0 0 0 0 0 0 0 0 0 0 0 0 0 0 0 0 0 0 0 0 0 0 0 0 0 0 0 0 0 0 0 0 0 0 0 0 0
0 0 0 0 0 0 0 0 0 0 0 0 0 0 0 0 0 0 0 0 0 0 0 0 0 0 0 0 0 0 0 0 0 0 0 0 0 0 0 0 0 0 0
CIN
-166 -128 -89 -94 -93 -118 -119 -116 -139 -119 -137 -135 -166 -139 -102 -89 -91 -121 -109 -92 -84 -99 -116 -109 -85 -125 -133 -133 -177 -187 -145 -193 -116 -134 -93 -186 -213 -180 -162 -185 -172 -199 -164
-176 -137 -94 -95 -111 -84 -92 -134 -129 -108 -152 -156 -148 -132 -111 -89 -106 -109 -98 -55 -84 -81 -89 -96 -88 -87 -103 -140 -117 -114 -126 -170 -147 -105 -185 -123 -118 -150 -124 -126 -150 -131 -151
-137 -119 -104 -82 -83 -84 -117 -133 -146 -146 -108 -165 -170 -129 -103 -96 -88 -98 -87 -76 -79 -91 -87 -81 -71 -95 -94 -119 -110 -137 -197 -124 -180 0 -151 -191 -133 -159 -124 -106 -140 -167 -144
-215 -135 -90 -81 -86 -89 -96 -120 -124 -113 -100 -108 -123 -103 -101 -93 -104 -90 -84 -95 -92 -80 -90 -92 -105 -112 -86 -106 -106 -119 -101 -157 -133 -82 -160 -157 -178 -143 -162 -117 -129 -182 -141
-241 -272 -290 -220 -140 -103 -73 -99 -115 -121 -101 -102 -110 -113 -111 -103 -130 -128 -113 -110 -97 -102 -109 -174 -225 -232 -172 -134 -117 -112 -165 -149 -149 -136 -136 -147 -119 -96 -78 -90 -122 -160 -164
0 0 -3 -210 -220 -187 -131 -145 -114 -120 -134 -140 -107 -120 -136 -226 0 0 -215 -137 -131 -121 -134 -249 0 0 -255 -211 0 -211 -14 -151 -127 -131 -127 -118 -134 -97 -71 -113 -132 -119 -113
-228 -144 0 -182 -277 -268 -250 -204 -134 -117 -115 -104 -142 -203 0 0 0 0 0 -232 -170 -183 -155 -246 0 0 0 -243 0 0 0 0 0 -132 -143 -124 -96 -110 0 0 -157 -104 -92
0 0 0 0 0 -332 -292 -221 -164 -121 -153 0 0 0 0 0 0 0 0 -163 -157 -242 -192 0 0 0 0 -224 0 0 0 0 0 0 0 0 0 0 0 0 -64 -37 -85
0 0 0 0 -314 -368 -290 -199 -165 -143 0 0 0 0 0 0 0 0 0 -7 0 0 0 0 0 0 0 0 0 0 0 0 0 0 0 0 0 0 0 0 0 0 0
0 0 0 0 0 -295 0 0 0 0 0 0 0 0 0 0 0 0 0 0 0 0 0 0 0 0 0 0 0 0 0 0 0 0 0 0 0 0 0 0 0 0 0
0 0 0 0 0 0 0 0 0 0 0 0 0 0 0 0 0 0 0 0 0 0 0 0 0 0 0 0 0 0 0 0 0 0 0 0 0 0 0 0 0 0 0
0 0 0 0 0 0 0 0 0 0 0 0 0 0 0 0 0 0 0 0 0 0 0 0 0 0 0 0 0 0 0 0 0 0 0 0 0 0 0 0 0 0 0
0 0 0 0 0 0 0 0 0 0 0 0 0 0 0 0 0 0 0 0 0 0 0 0 0 0 0 0 0 0 0 0 0 0 0 0 0 0 0 0 0 0 0
0 0 0 0 0 0 0 0 0 0 0 0 0 0 0 0 0 0 0 0 0 0 0 0 0 0 0 0 0 0 0 0 0 0 0 0 0 0 0 0 0 0 0
0 0 0 0 0 0 0 0 0 0 0 0 0 0 0 0 0 0 0 0 0 0 0 0 0 0 0 0 0 0 0 0 0 0 0 0 0 0 0 0 0 0 0
0 0 0 0 0 0 0 0 0 0 0 0 0 0 0 0 0 0 0 0 0 0 0 0 0 0 0 0 0 0 0 0 0 0 0 0 0 0 0 0 0 0 0
0 0 0 0 0 0 0 0 0 0 0 0 0 0 0 0 0 0 0 0 0 0 0 0 0 0 0 0 0 0 0 0 0 0 0 0 0 0 0 0 0 0 0
0 0 0 0 0 0 0 0 0 0 0 0 0 0 0 0 0 0 0 0 0 0 0 0 0 0 0 0 0 0 0 0 0 0 0 0 0 0 0 0 0 0 0
0 0 0 0 0 0 0 0 0 0 0 0 0 0 0 0 0 0 0 0 0 0 0 0 0 0 0 0 0 0 0 0 0 0 0 0 0 0 0 0 0 0 0
0 0 0 0 0 0 0 0 0 0 0 0 0 0 0 0 0 0 0 0 0 0 0 0 0 0 0 0 0 0 0 0 0 0 0 0 0 0 0 0 0 0 0
0 0 0 0 0 0 0 0 0 0 0 0 0 0 0 0 0 0 0 0 0 0 0 0 0 0 0 0 0 0 0 0 0 0 0 0 0 0 0 0 0 0 0
0 0 0 0 0 0 0 0 0 0 0 0 0 0 0 0 0 0 0 0 0 0 0 0 0 0 0 0 0 0 0 0 0 0 0 0 0 0 0 0 0 0 0
0 0 0 0 0 0 0 0 0 0 0 0 0 0 0 0 0 0 0 0 0 0 0 0 0 0 0 0 0 0 0 0 0 0 0 0 0 0 0 0 0 0 0
0 0 0 0 0 0 0 0 0 0 0 0 0 0 0 0 0 0 0 0 0 0 0 0 0 0 0 0 0 0 0 0 0 0 0 0 0 0 0 0 0 0 0
0 0 0 0 0 0 0 0 0 0 0 0 0 0 0 0 0 0 0 0 0 0 0 0 0 0 0 0 0 0 0 0 0 0 0 0 0 0 0 0 0 0 0
0 0 0 0 0 0 0 0 0 0 0 0 0 0 0 0 0 0 0 0 0 0 0 0 0 0 0 0 0 0 0 0 0 0 0 0 0 0 0 0 0 0 0
Wind_Speed
8 6 6 5 6 5 5 6 6 5 5 5 6 6 6 6 5 4 4 4 3 4 3 3 3 2 2 1 1 1 1 2 2 2 1 3 5 4 7 5 4 5 3
8 7 7 5 5 5 6 6 5 6 6 6 5 5 6 5 6 7 7 5 5 5 4 3 4 2 3 3 1 1 1 0 3 1 1 3 5 3 3 5 5 5 4
7 7 6 6 6 6 6 6 5 5 6 6 6 6 6 6 6 6 6 6 6 5 4 5 6 3 2 2 2 2 1 1 2 1 2 1 1 2 2 2 3 4 3
7 6 6 6 6 6 6 6 5 6 6 6 6 6 6 6 6 6 6 5 4 4 5 4 3 5 4 3 3 3 2 2 2 2 1 2 1 2 2 2 4 3 3
4 5 3 3 1 4 5 6 5 5 6 6 5 5 5 5 3 5 4 5 5 4 1 2 3 2 5 6 4 4 4 2 1 2 1 1 2 2 2 3 2 2 2
4 4 3 3 3 3 2 3 4 5 6 6 6 5 6 3 4 4 5 5 4 5 5 3 2 3 4 3 6 7 4 4 2 2 0 1 1 0 1 1 2 2 3
6 6 7 4 4 3 4 5 4 4 4 5 3 4 5 4 6 6 6 4 5 7 6 4 2 2 1 5 9 10 9 8 5 2 2 3 2 2 2 2 1 1 1
5 4 6 6 4 5 5 3 3 4 3 4 5 4 5 4 10 10 10 3 3 2 4 4 5 2 3 4 6 6 6 6 4 2 2 4 4 4 2 1 1 2 2
4 2 2 5 6 7 5 4 4 3 3 4 4 4 4 5 12 8 7 4 5 4 2 3 4 3 4 8 7 6 6 6 7 12 11 9 13 14 7 2 4 3 2
5 3 6 9 7 6 5 5 4 6 7 6 7 6 6 2 12 9 4 3 6 4 1 4 9 6 8 8 6 6 7 3 5 6 6 11 12 12 16 8 4 4 2
4 5 8 5 5 5 4 4 6 8 8 6 7 5 7 6 11 11 11 6 1 3 4 3 4 7 8 9 7 5 5 4 7 7 7 7 8 10 9 9 10 7 4
4 5 5 5 4 5 6 5 6 8 8 6 6 5 3 6 14 15 16 13 8 4 4 3 4 12 14 12 10 12 12 8 6 7 7 7 7 7 7 7 8 9 9
6 6 6 6 5 4 7 7 6 4 5 4 4 3 2 3 4 11 14 14 13 4 2 2 7 13 13 15 16 15 12 7 6 8 6 5 4 4 6 5 6 6 7
6 5 5 7 6 6 4 4 3 4 4 3 3 3 3 3 4 4 3 4 8 8 8 4 11 13 13 9 9 9 7 6 6 5 4 3 3 5 7 6 5 6 4
6 5 4 5 6 6 6 4 3 3 2 1 3 3 3 3 1 2 3 4 3 4 7 4 5 6 7 7 8 7 7 7 8 5 5 5 5 5 6 5 6 4 4
5 4 4 4 3 4 3 4 10 8 9 11 9 4 2 5 2 1 4 7 5 4 4 5 5 4 6 6 6 6 7 9 6 5 5 5 5 5 5 5 4 4 4
5 4 3 4 3 3 2 3 4 5 10 10 11 10 9 5 7 6 11 16 12 9 7 5 6 5 5 5 6 6 6 5 3 4 5 5 5 6 7 6 6 5 5
4 6 4 4 4 3 3 3 3 2 2 2 6 2 7 9 11 8 8 10 7 7 5 5 5 5 4 4 5 5 4 4 4 5 5 5 4 4 4 4 5 5 4
2 1 1 1 2 3 3 3 3 4 3 2 1 4 7 14 14 11 9 7 7 7 5 5 5 5 4 3 5 4 4 4 4 4 4 4 4 3 4 4 4 8 7
2 4 4 2 1 1 3 4 3 2 0 1 3 3 3 4 3 4 5 5 5 4 5 5 4 4 4 4 4 5 4 3 3 3 4 3 3 3 3 3 3 3 3
2 2 3 2 3 3 3 4 4 4 4 4 5 3 4 6 7 6 7 6 6 5 6 6 4 4 3 4 4 4 3 3 3 3 3 3 3 3 3 3 2 1 2
4 3 2 3 3 3 3 3 3 5 5 5 4 2 5 2 4 5 5 5 5 5 5 6 5 5 5 5 5 4 4 4 3 3 3 3 3 3 2 1 2 2 2
4 5 4 3 3 3 1 3 4 5 5 5 4 5 4 4 4 5 6 5 4 5 4 5 5 4 4 4 4 5 6 5 5 4 4 4 3 2 1 0 1 2 2
5 5 5 4 3 3 4 4 4 6 5 5 5 5 5 5 5 6 5 5 5 5 5 5 6 7 6 5 4 4 4 4 5 5 6 4 4 3 1 1 2 3 4
5 5 4 4 4 4 4 3 3 2 2 3 4 4 5 5 5 6 5 5 6 6 7 6 6 8 10 10 8 8 7 10 7 7 4 5 5 5 3 3 3 3 4
5 5 4 4 4 5 3 3 5 4 5 4 4 4 5 5 5 6 7 7 6 7 7 6 8 10 10 9 10 11 9 13 10 9 5 5 5 4 3 4 5 4 5
Wind_Direction
187 192 195 211 214 209 209 228 216 219 219 222 209 191 194 196 190 199 235 220 191 211 228 212 211 198 224 208 207 148 137 151 168 325 315 318 19 28 36 3 18 27 57
178 174 195 199 212 210 221 232 225 217 214 199 190 198 198 201 196 196 212 209 226 228 244 259 246 180 209 177 153 102 128 70 126 198 266 339 41 359 9 26 350 2 10
166 178 183 206 213 219 221 216 223 226 231 210 185 196 207 210 200 200 213 210 222 234 262 253 262 215 209 207 157 101 55 39 37 108 334 343 322 20 30 122 306 327 341
151 171 182 200 210 227 224 212 210 213 222 227 210 205 201 197 199 211 208 202 221 239 259 293 205 197 186 204 174 162 150 120 101 82 357 344 328 328 40 20 348 354 354
148 156 126 46 338 253 249 237 221 214 219 222 217 224 198 178 185 200 200 195 212 220 155 116 85 135 147 162 179 175 159 139 109 103 103 325 342 5 11 327 302 305 323
177 133 120 46 50 347 269 257 232 225 228 220 221 205 211 147 172 216 205 217 205 189 173 135 65 39 54 107 101 96 117 150 135 108 48 321 294 291 345 299 308 15 359
120 134 128 121 93 82 50 34 16 332 293 256 177 150 118 99 313 255 238 217 185 177 160 164 120 324 20 100 94 85 68 61 64 133 163 201 231 189 330 315 359 22 97
123 144 150 149 114 116 96 89 74 76 28 32 22 53 81 42 324 310 285 178 130 116 135 154 148 156 70 120 93 73 50 46 29 37 54 314 271 273 221 242 312 319 40
84 79 223 125 81 57 45 54 60 86 90 80 83 67 70 41 358 312 275 121 105 99 69 94 101 82 66 118 117 105 80 39 31 66 67 52 55 50 37 88 32 57 41
81 42 35 47 55 58 62 76 68 93 101 98 87 60 34 60 31 22 77 25 113 105 79 70 56 78 56 69 104 113 89 32 59 46 26 35 34 37 39 43 22 77 51
80 79 76 78 75 82 87 83 104 98 96 89 87 69 57 9 40 70 76 82 23 103 85 52 44 64 76 73 75 85 95 106 59 64 55 45 40 37 31 27 36 52 68
64 83 84 83 80 112 102 92 103 113 110 109 98 70 16 49 42 39 68 66 51 67 55 53 22 81 72 64 68 73 68 67 64 60 55 42 39 33 26 34 41 65 63
70 55 43 43 47 60 117 128 121 104 117 118 103 106 42 24 60 55 51 59 51 64 22 72 113 82 75 65 56 64 62 59 67 68 61 43 31 23 21 31 38 54 59
82 73 58 65 46 39 54 42 80 128 122 108 123 114 85 45 51 66 55 54 62 69 60 53 86 86 80 76 59 53 64 65 71 70 59 38 21 36 43 23 25 6 54
101 91 75 82 75 65 45 37 50 58 9 111 147 128 117 83 73 44 39 103 98 91 93 70 49 61 62 62 62 52 55 53 59 43 46 45 44 50 44 27 39 31 57
102 104 111 102 94 94 72 77 47 37 55 64 56 91 45 83 64 100 135 145 137 210 81 91 107 92 92 86 74 58 53 57 47 52 50 47 47 47 40 33 34 45 42
118 114 94 91 104 119 132 101 96 46 56 58 75 62 60 57 23 35 92 78 72 89 96 87 73 61 70 84 85 75 65 60 66 57 58 48 44 45 39 37 31 22 24
111 131 139 134 124 98 87 91 87 94 79 62 21 68 76 63 89 92 80 77 61 45 61 82 80 78 71 63 89 89 74 65 58 64 60 49 45 54 48 36 28 21 16
120 73 124 127 152 146 118 108 122 119 118 93 160 53 43 85 92 69 47 93 106 100 93 88 94 100 96 114 93 83 87 84 85 81 66 61 58 67 61 43 31 29 21
176 182 176 176 193 155 153 157 154 128 47 203 183 159 130 90 109 109 66 71 96 114 105 115 124 114 107 103 104 107 106 104 99 96 96 82 68 75 71 55 33 19 349
177 223 207 172 194 182 184 207 200 189 191 197 221 223 186 143 146 148 155 154 148 153 142 149 141 125 121 128 129 136 133 124 117 105 101 99 87 76 57 68 55 346 321
184 194 203 201 182 186 200 205 204 191 195 204 219 227 193 142 147 160 157 161 167 154 154 152 158 155 162 166 157 155 153 153 157 152 141 131 109 93 79 61 358 350 324
192 192 200 210 206 220 236 176 191 191 202 213 206 189 178 182 176 184 173 170 172 160 163 156 156 170 180 175 173 168 167 184 181 167 160 155 146 145 178 60 341 311 310
198 206 210 222 205 212 225 234 199 204 210 214 207 197 190 187 177 191 184 172 173 175 177 175 178 182 183 189 190 183 185 168 164 173 160 165 176 175 199 242 267 288 299
186 191 196 199 203 198 206 227 250 206 179 210 209 194 184 189 191 189 191 179 179 179 191 195 192 192 190 194 193 191 189 175 174 161 164 167 180 192 210 229 249 266 272
187 181 171 175 174 168 167 177 222 187 200 214 214 207 187 200 204 189 191 185 189 197 192 201 211 202 197 207 200 194 188 189 181 178 169 175 185 201 212 228 252 260 277